Starlink 36039

operational
NORAD ID: 66612 Int'l Des: 2025-270 Owner: SPXS Country: US Constellation: starlink
LEOCIRCULAR

About Starlink 36039

Description loading...

Live Position

Loading 3D Globe...

Upcoming Passes

Altitude History

Altitude vs Time

uPlot chart will show altitude changes over time

Two-Line Element Set

1 66612U 25270AA 26062.08449011 .00024389 00000-0 89224-3 0 9994
2 66612 42.9954 93.6530 0002016 259.5083 100.5541 15.27602423 16693
Epoch: Mar 3, 2026 • Age: 29 hours

Current Status

Altitude 486.7 km
Velocity 7.63 km/s
Sub-Earth Point 40.63°N, 83.75°W
Launch Date Nov 22, 2025
Age 0.2 years
Type internet

Technical Details

Classification Payload
Mass 575.00 kg
Dry Mass 530.00 kg
Total Mass 575.00 kg
Length 0.30 m
Diameter 4.10 m
Span 29.00 m
Shape Box + pan
Manufacturer SPXS
Bus Type Starlink V2MO
Phase Status In Orbit
Owner/State SPXS/US

Large Constellations

Loading constellations...